Weather History for San Jose, Costa Rica

Change the Weather History Date:

Thursday, September 13, 2012

  Actual Average Record
Temperature  
Mean Temperature 75 °F -  
Max Temperature 83 °F 79 °F 84 °F (1996)
Min Temperature 67 °F 63 °F 62 °F (1999)
Cooling Degree Days 10    
Growing Degree Days 25 (Base 50)    
Moisture  
Dew Point 63 °F    
Average Humidity 73    
Maximum Humidity 94    
Minimum Humidity 48    
Precipitation  
Precipitation 0.35 in 0.45 in - ()
Sea Level Pressure  
Sea Level Pressure 29.94 in    
Wind  
Wind Speed 5 mph ()    
Max Wind Speed 12 mph    
Max Gust Speed -    
Visibility 7.6 miles    
Events Fog , Rain , Thunderstorm    
Averages and records for this station are not official NWS values.
T = Trace of Precipitation, MM = Missing Value Source: Averaged Metar Reports

Daily Weather History Graph

Daily Weather History Graph

Search for Another Location

Airport:

Trip Planner

Search our weather history database for the weather conditions in past years. The results will help you decide how hot, cold, wet, or windy it might be!

Date:

Astronomy

Sep. 13, 2012 Rise Set
Actual Time 5:26 AM CST 5:38 PM CST
Civil Twilight 5:05 AM CST 5:59 PM CST
Nautical Twilight 4:41 AM CST 6:23 PM CST
Astronomical Twilight 4:16 AM CST 6:48 PM CST
Moon 3:06 AM CST (9/13) 3:45 PM CST (9/13)
Length of Visible Light 12h 53m
Length of Day
12h 11m
Waning Crescent, 7% of the Moon is Illuminated
Sep 13
Waning Crescent
Sep 15
New
Sep 22
First Quarter
Sep 29
Full
Oct 8
Last Quarter

Hourly Weather History & Observations

Time (CST) Temp. Heat Index Dew Point Humidity Pressure Visibility Wind Dir Wind Speed Gust Speed Precip Events Conditions
12:00 AM 70 °F - 60 °F 61% 29.81 in 12 mi NE 3.5 mph - -   Partly Cloudy
12:00 AM 69.8 °F - 59.0 °F 68% 30.01 in - NE 3.5 mph - N/A   Clear
1:00 AM 68.0 °F - 59.0 °F 73% 29.98 in - SSE 2.3 mph - N/A   Clear
2:00 AM 68.0 °F - 60.8 °F 78% 29.95 in - ENE 4.6 mph - N/A   Clear
3:00 AM 68 °F - 59 °F 67% 29.79 in 12 mi ENE 5.8 mph - -   Partly Cloudy
3:00 AM 68.0 °F - 59.0 °F 73% 29.91 in - ENE 5.8 mph - N/A   Clear
4:00 AM 68.0 °F - 59.0 °F 73% 29.91 in - NE 5.8 mph - N/A   Clear
5:00 AM 69.8 °F - 59.0 °F 68% 29.94 in - ENE 6.9 mph - N/A   Clear
6:00 AM 69 °F - 59 °F 64% 29.81 in 12 mi NE 6.9 mph - -   Partly Cloudy
6:00 AM 69.8 °F - 59.0 °F 68% 29.95 in - NE 6.9 mph - N/A   Clear
7:00 AM 71.6 °F - 60.8 °F 69% 29.98 in 6.2 mi ENE 9.2 mph - N/A   Mostly Cloudy
8:00 AM 73.4 °F - 60.8 °F 65% 29.99 in 6.2 mi ESE 9.2 mph - N/A   Mostly Cloudy
9:00 AM 76 °F - 60 °F 48% 29.86 in 12 mi ESE 6.9 mph - -   Overcast
9:00 AM 77.0 °F - 60.8 °F 57% 30.01 in 6.2 mi ESE 6.9 mph - N/A   Mostly Cloudy
10:00 AM 80.6 °F 81.5 °F 60.8 °F 51% 30.00 in 6.2 mi East 6.9 mph - N/A   Mostly Cloudy
11:00 AM 80.6 °F 82.3 °F 64.4 °F 58% 29.99 in 6.2 mi SSW 8.1 mph - N/A   Mostly Cloudy
12:00 PM 79 °F - 67 °F 59% 29.81 in 12 mi WSW 9.2 mph - -   Overcast
12:00 PM 78.8 °F - 68.0 °F 69% 29.97 in 6.2 mi WSW 9.2 mph - N/A   Mostly Cloudy
1:00 PM 77.0 °F - 68.0 °F 74% 29.96 in 6.2 mi WSW 11.5 mph - N/A   Mostly Cloudy
1:40 PM 73.4 °F - 68.0 °F 83% 29.95 in 5.0 mi WSW 9.2 mph - N/A Rain Rain Showers
1:45 PM 73.4 °F - 68.0 °F 83% 29.96 in 1.9 mi SW 8.1 mph - N/A Rain , Thunderstorm Thunderstorms and Rain
2:00 PM 69.8 °F - 66.2 °F 88% 29.95 in 6.2 mi South 3.5 mph - N/A Rain , Thunderstorm Light Thunderstorms and Rain
3:00 PM 70 °F - 67 °F 88% 29.85 in 9 mi SSW 4.6 mph - - Fog Light Fog
3:00 PM 69.8 °F - 68.0 °F 94% 29.96 in 6.2 mi SSW 4.6 mph - N/A   Mostly Cloudy
4:00 PM 71.6 °F - 68.0 °F 88% 29.97 in 5.0 mi WSW 4.6 mph - N/A Fog Mostly Cloudy
5:00 PM 69.8 °F - 68.0 °F 94% 29.97 in 5.0 mi West 4.6 mph - N/A Fog Mostly Cloudy
6:00 PM 70 °F - 68 °F 90% 29.81 in 12 mi East 3.5 mph - -   Overcast
6:00 PM 69.8 °F - 68.0 °F 94% 29.95 in 6.2 mi East 3.5 mph - N/A   Mostly Cloudy
7:00 PM 69.8 °F - 64.4 °F 83% 29.93 in 6.2 mi ENE 3.5 mph - N/A   Mostly Cloudy
8:00 PM 71.6 °F - 62.6 °F 73% 29.97 in - SE 2.3 mph - N/A   Clear
9:00 PM 71.6 °F - 62.6 °F 73% 30.00 in - NE 8.1 mph - N/A   Clear
10:00 PM 69.8 °F - 62.6 °F 78% 30.00 in - NE 4.6 mph - N/A   Clear
11:00 PM 69.8 °F - 55.4 °F 60% 29.99 in - East 5.8 mph - N/A   Clear